Regional Weather Roundup
Issued by NWS

Home | Current Version | Previous Version | Text Only | Print | Product List | Glossary Off
Versions: 1 2 3 4 5 6 7 8 9 10 11 12 13 14 15 16 17 18 19 20 21 22 23 24 25 26 27 28 29 30 31 32 33 34 35 36 37 38 39 40 41 42 43 44 45 46 47 48 49 50

000
ASUS43 KIND 292009
RWRIN

WEATHER ROUNDUP FOR INDIANA
NATIONAL WEATHER SERVICE INDIANAPOLIS IN
400 PM EDT SUN MAR 29 2015

NOTE: "FAIR" INDICATES FEW OR NO CLOUDS BELOW 12,000 FEET WITH NO
SIGNIFICANT WEATHER AND/OR OBSTRUCTIONS TO VISIBILITY.

* - STATION DOES NOT REPORT WEATHER SUCH AS PRECIPITATION OR FOG.

+ - STATION NOT QUALITY CONTROLLED BY THE NATIONAL WEATHER SERVICE.
    USE DATA WITH CAUTION...ESPECIALLY DEWPOINT AND RELATIVE
    HUMIDITY OBSERVATIONS.

INZ001>003-010>013-019-020-292100-
NORTHWEST INDIANA

CITY           SKY/WX    TMP DP  RH WIND       PRES   REMARKS
GARY /AIRPORT/ CLOUDY    37  25  60 S22G33    29.87F
KNOX *+          N/A     36  18  48 S15G22    29.91F
LA PORTE +     CLOUDY    37  28  69 S20G30    29.88F
MICHIGAN CITY+ LGT RAIN  36  23  60 S21G30    29.86F
MONTICELLO +   CLOUDY    39  27  61 S10G18    29.93F
RENSSELAER +   CLOUDY    37  32  81 S14       29.91F
VALPARAISO     CLOUDY    36  29  75 S16G24    29.89F

$$

LMZ046-743>745-292100-
SOUTHERN LAKE MICHIGAN

STATION/POSITION TIME  TEMP WIND        PRES
                       AIR  DIR/SP/G
                 (UTC) (F)  (DEG/KT/KT) (MB)
BURNS HARBOR     2000   37  180/ 22/ 31 1011.9R
MICHIGAN CITY    2000   36  160/ 25/ 31   N/A

$$

INZ004-005-014>016-021>024-292100-
NORTH CENTRAL INDIANA

CITY           SKY/WX    TMP DP  RH WIND       PRES   REMARKS
ELKHART        LGT RAIN  37  23  56 SW12G20   29.92F
GOSHEN         LGT RAIN  38  25  59 S23G31    29.92F
LOGANSPORT +   CLOUDY    37  28  70 S13       29.97F
PERU/GRISSOM   CLOUDY    39  30  70 S8        29.94F
ROCHESTER +    CLOUDY    41  28  60 S17       29.96S
SOUTH BEND     LGT RAIN  38  25  59 S22G32    29.91F
WARSAW +       LGT RAIN  37  28  70 S13G21    29.94S

$$

INZ006>009-017-018-025>027-292100-
NORTHEAST INDIANA

CITY           SKY/WX    TMP DP  RH WIND       PRES   REMARKS
ANGOLA *+      CLOUDY    39  21  48 S16       29.88F
AUBURN +       CLOUDY    43  18  36 S14G23    29.94F
FORT WAYNE     LGTSLEET  41  22  46 S20G28    29.96F
HUNTINGTON +   LGT RAIN  39  20  46 S12G20    29.95F

$$

INZ028-029-035-036-043>045-051>053-292100-
WEST CENTRAL INDIANA

CITY           SKY/WX    TMP DP  RH WIND       PRES   REMARKS
CRAWFORDSVL +  CLOUDY    42  17  36 S17G23    29.96F
GREENCASTLE +  CLOUDY    45  14  29 S16G30    29.96F
LAFAYETTE      CLOUDY    42  26  53 S14G23    29.95F
TERRE HAUTE    CLOUDY    48  25  40 S17G26    29.95F

$$

INZ030>032-037>040-046>048-054>057-064-065-292100-
CENTRAL INDIANA

CITY           SKY/WX    TMP DP  RH WIND       PRES   REMARKS
CP ATTERBURY + CLOUDY    48  18  29 S20G29    30.02F
COLUMBUS       CLOUDY    46  10  23 S18       30.03F
FISHERS *+     CLOUDY    45  27  49 S16G26    29.96F
FRANKFORT +    CLOUDY    42  27  54 S14G20    29.98F
GREENWOOD *+   CLOUDY    48  16  27 S18G26    29.99F
INDIANAPOLIS   CLOUDY    49  14  24 S25G32    29.95F
-EAGLE CREEK   CLOUDY    48  15  26 S14G28    29.95F
KOKOMO *+        N/A     39  28  65 S16       29.96S
MARION +       CLOUDY    39  22  50 S21G26    29.98F
MT COMFORT *+  CLOUDY    45   9  23 S23G31    29.99F
SHELBYVILLE    CLOUDY    47  21  35 S17G25    30.00F
ZIONSVILLE +   CLOUDY    45  15  29 S20G28    29.96F

$$

INZ033-034-041-042-049-050-058-059-292100-
EAST CENTRAL INDIANA

CITY           SKY/WX    TMP DP  RH WIND       PRES   REMARKS
MUNCIE         LGT RAIN  43  20  39 S15G29    29.97F

$$

INZ060-061-067>069-081>083-085>088-292100-
SOUTHWEST INDIANA

CITY           SKY/WX    TMP DP  RH WIND       PRES   REMARKS
EVANSVILLE     MOSUNNY   58  26  29 S17G26    30.04F
HUNTINGBURG *+ MOSUNNY   54  23  30 S17G26    30.05F
WASHINGTON +   PTSUNNY   51  22  31 S18G31    30.00F

$$

INZ062-063-066-070>080-084-089>092-292100-
SOUTH CENTRAL AND SOUTHEAST INDIANA

CITY           SKY/WX    TMP DP  RH WIND       PRES   REMARKS
BEDFORD +      PTSUNNY   54  12  19 S13G21    30.03F
BLOOMINGTON    CLOUDY    51  17  26 S21G31    29.98F
NORTH VERNON + CLOUDY    48  12  23 S9G16     30.06F
SEYMOUR +      CLOUDY    52  23  32 S18G24    30.05F

$$




USA.gov is the U.S. government's official web portal to all federal, state and local government web resources and services.